ランキン彗星

P/2021 R5 ( Rankin )

English version
Home page
Updated on January 20, 2022

---------------------------------------------------------------------

・ プロフィール

発見日 2021年9月9日
発見光度 19.3等
発見者 David Rankin (Mt. Lemmon)

・ 写真集

・ 軌道要素

Epoch 2022 Jan. 21.0 TT = JDT 2459600.5
T 2022 Jan. 12.05972 TT                                 Rudenko
q   3.3227423            (2000.0)            P               Q
n   0.09384966     Peri.  167.35249     +0.88719953     -0.45296276
a   4.7956512      Node   219.95984     +0.41052152     +0.86179851
e   0.3071343      Incl.    7.85368     +0.21059221     +0.22831570
P  10.5
From 213 observations 2021 June 22-Dec. 16, mean residual 0".4.

・ 光度変化

        m1 = 6.0 + 5 logΔ + 20.0 log r

---------------------------------------------------------------------

軌道要素はM.P.E.C. 2022-A21に掲載されたものです。
光度グラフはComet for Windowsで作成したものです。

---------------------------------------------------------------------

Copyright(C) Seiichi Yoshida (comet@aerith.net). All rights reserved.